Location: Alexandria
(38.8050°N, 77.0470°W)
Time: 11:28:59
(UTC-04:00)

ISS - Pass Details

Date: 10 March 2018
Orbit: 402 x 408 km, 51.6° (Epoch: 23 June)

Event Time Altitude Azimuth Distance (km) Brightness Sun altitude
Exits shadow 05:48:39 - 319° (NW) 2,193 -0.5 -8.3°
Reaches altitude 10° 05:51:44 10° 356° (N) 1,478 -1.0 -7.7°
Maximum altitude 05:52:37 11° 11° (NNE) 1,431 -0.9 -7.6°
Drops below altitude 10° 05:53:29 10° 27° (NNE) 1,476 -0.6 -7.4°
Sets 05:57:02 0° 67° (ENE) 2,331 1.5 -6.7°
